Regional Weather Roundup
Issued by NWS State College, PA

Home | Current Version | Previous Version | Text Only | Print | Product List | Glossary On
Versions: 1 2 3 4 5 6 7 8 9 10 11 12 13 14 15 16 17 18 19 20 21 22 23 24 25 26 27 28 29 30 31 32 33 34 35 36 37 38 39 40 41 42 43 44 45 46 47 48 49 50
000
ASUS41 KCTP 202210
RWRCTP

REGIONAL WEATHER ROUNDUP
NATIONAL WEATHER SERVICE STATE COLLEGE PA
500 PM EST MON NOV 20 2017

Note: "fair" indicates few or no clouds below 12,000 feet with no
significant weather and/or obstructions to visibility.

* = STATION THAT DOES NOT REPORT PRECIPITATION /E.G. RAIN...SNOW...ETC/
    THUNDER OR FOG.

PAZ002>004-007>009-013>016-020>023-029>032-202300-
WESTERN PENNSYLVANIA

CITY           SKY/WX    TMP DP  RH WIND       PRES   REMARKS
ERIE           CLEAR     42  25  50 S21       29.95F
MEADVILLE      CLEAR     37  25  61 S12       29.99F
FRANKLIN*      CLEAR     36  23  59 SW12      30.02S
NEW CASTLE     FAIR      41  23  48 S7        30.05S
BEAVER COUNTY  CLEAR    N/A N/A N/A S13G18    30.06S
BUTLER*        CLEAR     39  23  52 S8        30.07S
PITTSBURGH INT PTCLDY    42  22  44 SW10      30.07S
PITTSBURGH     CLEAR     41  21  44 S12       30.08S
INDIANA*       CLEAR     37  25  60 SW10      30.11R
LATROBE        CLEAR     39  25  56 SW16      30.11S
WASHINGTON CO* CLEAR     40  22  48 S8        30.12S
$$

PAZ004>006-010>012-017>019-024>028-033>037-041-042-045-046-049>053-202300-
CENTRAL PENNSYLVANIA

CITY           SKY/WX    TMP DP  RH WIND       PRES   REMARKS
BRADFORD       CLOUDY    36  23  59 SW8       29.97R
DUBOIS         CLEAR     35  22  58 SW6       30.02S
CLEARFIELD     CLEAR     38  24  57 S8        30.05S
JOHNSTOWN      CLEAR     37  23  56 SW9       30.05S
ALTOONA        CLEAR     41  24  51 SW14      30.08S
STATE COLLEGE  CLEAR     39  23  52 SW12      30.05F
WILLIAMSPORT   CLOUDY    45  24  43 SW10      30.05R
SELINSGROVE    CLEAR     43  25  49 SW5       30.08S
FT INDIANTOWN  CLEAR     43  22  43 SW9       30.09S
CAPITAL CITY   CLEAR     45  21  38 SW10      30.11F
HARRISBURG     PTCLDY    45  26  47 SW9       30.11F
YORK           CLEAR     42  24  49 S3        30.12F
$$

PAZ038>040-043-044-047-048-054-055-060>062-067>071-202300-
EASTERN PENNSYLVANIA

CITY           SKY/WX    TMP DP  RH WIND       PRES   REMARKS
SCRANTON       CLEAR     41  25  53 SW6       30.04R
MOUNT POCONO   CLEAR     35  24  64 W8        30.01R
ALLENTOWN      CLEAR     43  23  45 SW12      30.08S
QUAKERTOWN*    CLEAR     41  23  48 SW5       30.10S
READING        CLEAR     44  26  49 SW13      30.10S
LANCASTER      CLEAR     44  24  45 SW10      30.12S
COATESVILLE    CLEAR     43  23  45 VRB5G12   30.13S
POTTSTOWN      CLEAR     42  22  44 SW7       30.13S
BLUE BELL      CLEAR     41  23  48 SW3       30.13S
DOYLESTOWN     CLEAR     42  22  44 SW8       30.10R
WILLOW GROVE   NOT AVBL
NORTH PHILA    CLEAR     46  23  40 W12       30.14R
PHILADELPHIA   PTCLDY    46  23  40 W16       30.14R
$$




USA.gov is the U.S. government's official web portal to all federal, state and local government web resources and services.